Вернуться в каталог

STARLINK-11736

АктивенСвязьVLEO
NORAD 64317·PAYLOAD·🇺🇸 United States

Запущен Jun 10, 2025 с Cape Canaveral Space Force Station

Loading…

Ближайшие Пролёты (ближайшие 24 часа)

TLE

СвежийSource: CelesTrak SupGP

Эпоха: Sep 14, 2026, 14:33 UTC

1 64317C 25124A   26257.60673611  .00064604  00000+0  50208-3 0  2571
2 64317  43.0004 330.7804 0001496 256.9264  76.3752 15.70792213    11

Отслеживайте STARLINK-11736 в реальном времени с AllMySat

Download on the App Store